Regional Weather Roundup
Issued by NWS

Home | Current Version | Previous Version | Graphics & Text | Print | Product List | Glossary On
Versions: 1 2 3 4 5 6 7 8 9 10 11 12 13 14 15 16 17 18 19 20 21 22 23 24 25 26 27 28 29 30 31 32 33 34 35 36 37 38 39 40 41 42 43 44 45 46 47 48 49 50
693
ASUS43 KIND 092209
RWRIN

WEATHER ROUNDUP FOR INDIANA
NATIONAL WEATHER SERVICE INDIANAPOLIS IN
500 PM EST FRI DEC 09 2016

NOTE: "FAIR" INDICATES FEW OR NO CLOUDS BELOW 12,000 FEET WITH NO
SIGNIFICANT WEATHER AND/OR OBSTRUCTIONS TO VISIBILITY.

* - STATION DOES NOT REPORT WEATHER SUCH AS PRECIPITATION OR FOG.

+ - STATION NOT QUALITY CONTROLLED BY THE NATIONAL WEATHER SERVICE.
    USE DATA WITH CAUTION...ESPECIALLY DEWPOINT AND RELATIVE
    HUMIDITY OBSERVATIONS.

INZ001>003-010>013-019-020-092300-
NORTHWEST INDIANA

CITY           SKY/WX    TMP DP  RH WIND       PRES   REMARKS
GARY /AIRPORT/ MOCLDY    27  14  59 W12       30.52R WCI  16
KNOX *+        MOCLDY    27  -4  26 W10       30.50R WCI  17
LA PORTE +     CLOUDY    24  16  70 W8        30.49R WCI  15
MICHIGAN CITY+ CLOUDY    27  18  69 SW7       30.50R WCI  19
MONTICELLO +   CLOUDY    25  11  55 W7        30.51R WCI  17
RENSSELAER +     N/A     27  19  74 W7        30.52R WCI  19
VALPARAISO     CLOUDY    24  13  62 W9        30.50R WCI  14

$$

LMZ046-743>745-092300-
SOUTHERN LAKE MICHIGAN

STATION/POSITION TIME  TEMP    WIND        PRES    WAVE
                       AIR SEA DIR/SP/G            HT
                 (UTC) (F)     (DEG/KT/KT) (MB)    (FT)

$$

INZ004-005-014>016-021>024-092300-
NORTH CENTRAL INDIANA

CITY           SKY/WX    TMP DP  RH WIND       PRES   REMARKS
ELKHART        LGT SNOW  25  19  80 W10       30.46R WCI  15
GOSHEN         FLURRIES  25  17  72 W13       30.46R WCI  14
LOGANSPORT +   FLURRIES  27  19  74 NW5       30.51S WCI  21
PERU/GRISSOM   FLURRIES  25  18  73 W9        30.48S WCI  16
ROCHESTER +    CLOUDY    28  18  64 W7        30.50R WCI  21
SOUTH BEND     FLURRIES  23  18  81 W13       30.48R WCI  11
WARSAW +       CLOUDY    27  12  54 W12       30.47R WCI  16

$$

INZ006>009-017-018-025>027-092300-
NORTHEAST INDIANA

CITY           SKY/WX    TMP DP  RH WIND       PRES   REMARKS
ANGOLA *+      CLOUDY    27  19  74 W9        30.42R WCI  17
AUBURN +       MOCLDY    28  18  64 W10       30.45R WCI  19
FORT WAYNE     FLURRIES  28  16  60 W13       30.46S WCI  17
HUNTINGTON +   CLOUDY    26  14  59 W10       30.48R WCI  16
KENDALLVILLE + FLURRIES  25  19  79 W9        30.44R WCI  15

$$

INZ028-029-035-036-043>045-051>053-092300-
WEST CENTRAL INDIANA

CITY           SKY/WX    TMP DP  RH WIND       PRES   REMARKS
CRAWFORDSVL +  CLOUDY    24  16  71 W7        30.52R WCI  16
GREENCASTLE +  CLOUDY    27  18  69 SW6       30.54R WCI  20
LAFAYETTE      CLOUDY    25  15  66 W10       30.52S WCI  15
TERRE HAUTE    CLOUDY    26  13  57 SW7       30.57R WCI  18

$$

INZ030>032-037>040-046>048-054>057-064-065-092300-
CENTRAL INDIANA

CITY           SKY/WX    TMP DP  RH WIND       PRES   REMARKS
CP ATTERBURY + CLOUDY    28  14  54 W3        30.54S
COLUMBUS       CLOUDY    27  16  63 W6        30.54F WCI  20
FISHERS *+     CLOUDY    23  19  86 W6        30.51  WCI  16
FRANKFORT +    CLOUDY    28  18  67 W8        30.51S WCI  20
GREENWOOD *+   CLOUDY    26  15  62 NW6       30.52S WCI  20
INDIANAPOLIS   FLURRIES  25  15  66 W7        30.51S WCI  17
-EAGLE CREEK   FLURRIES  26  16  65 NW7       30.51S WCI  18
KOKOMO +       FLURRIES  25  18  74 W10       30.50R WCI  15
MARION +       CLOUDY    25  18  74 W9        30.49S WCI  16
MT COMFORT *+  CLOUDY    25  16  68 W9        30.51S WCI  15
SHELBYVILLE    CLOUDY    27  14  58 W10       30.51S WCI  17
ZIONSVILLE +   FLURRIES  24  15  68 NW6       30.51S WCI  17

$$

INZ033-034-041-042-049-050-058-059-092300-
EAST CENTRAL INDIANA

CITY           SKY/WX    TMP DP  RH WIND       PRES   REMARKS
MUNCIE         CLOUDY    26  17  68 W7        30.49S WCI  18

$$

INZ060-061-067>069-081>083-085>088-092300-
SOUTHWEST INDIANA

CITY           SKY/WX    TMP DP  RH WIND       PRES   REMARKS
EVANSVILLE     CLOUDY    30  14  51 NW7       30.60R WCI  23
HUNTINGBURG *+ CLOUDY    27  16  63 W9        30.59R WCI  17
WASHINGTON +   CLOUDY    26  18  69 W7        30.59R WCI  19

$$

INZ062-063-066-070>080-084-089>092-092300-
SOUTH CENTRAL AND SOUTHEAST INDIANA

CITY           SKY/WX    TMP DP  RH WIND       PRES   REMARKS
BLOOMINGTON    CLOUDY    24  13  62 W7        30.55R WCI  16
MADISON *+     CLOUDY    27  14  59 W7        30.57R WCI  19
NORTH VERNON + CLOUDY    27  19  74 W3        30.54F

$$





USA.gov is the U.S. government's official web portal to all federal, state and local government web resources and services.